{"data":{"norad_id":65211,"intl_designator":"2025-176P","name":"STARLINK-34847","alt_names":[],"object_type":"PAYLOAD","status":"ACTIVE","operator":null,"country":"US","launch_date":"2025-08-14","launch_site_code":"AFETR","launch_vehicle":null,"mission":null,"orbit_class":"UNKNOWN","rcs_meters":null,"size_class":null,"mass_kg":null,"dimensions":null,"purposes":["comms"],"wikipedia_slug":null,"has_3d_model":false,"image_url":null,"decayed_at":null,"tle_current":{"epoch":"2026-09-20T09:15:14.023872Z","epoch_age_seconds":130794,"freshness":"FRESH","line1":"1 65211U 25176P   26263.38557898  .00008683  00000+0  26780-3 0  9998","line2":"2 65211  53.1600 325.9510 0001089  79.4700 280.6425 15.34403652 62965","mean_motion":15.34403652,"eccentricity":0.0001089,"inclination_deg":53.16,"raan_deg":325.951,"arg_perigee_deg":79.47,"mean_anomaly_deg":280.6425,"bstar":0.0002678,"rev_number":6296,"period_min":93.847534716373,"perigee_km":461.94741939491,"apogee_km":463.43735203511,"semimajor_km":6840.829385715,"source":"CELESTRAK","updated_at":"2026-09-21T09:00:35.535885Z"}}}